Year,Month,Day,Hour,Minute,Value (Times are PST for temperature in C)
2015,08,12,00,00,20.30
2015,08,12,00,01,20.30
2015,08,12,00,02,20.30
2015,08,12,00,03,20.30
2015,08,12,00,04,20.30
2015,08,12,00,05,20.30
2015,08,12,00,06,20.30
2015,08,12,00,07,20.20
2015,08,12,00,08,20.20
2015,08,12,00,09,20.20
2015,08,12,00,10,20.20
2015,08,12,00,11,20.20
2015,08,12,00,12,20.20
2015,08,12,00,13,20.10
2015,08,12,00,14,20.10
2015,08,12,00,15,20.10
2015,08,12,00,16,20.10
2015,08,12,00,17,20.10
2015,08,12,00,18,20.10
2015,08,12,00,19,20.10
2015,08,12,00,20,20.00
2015,08,12,00,21,20.00
2015,08,12,00,22,20.00
2015,08,12,00,23,20.00
2015,08,12,00,24,19.90
2015,08,12,00,25,19.90
2015,08,12,00,26,19.90
2015,08,12,00,27,19.90
2015,08,12,00,28,19.90
2015,08,12,00,29,19.90
2015,08,12,00,30,19.80
2015,08,12,00,31,19.80
2015,08,12,00,32,19.80
2015,08,12,00,33,19.80
2015,08,12,00,34,19.70
2015,08,12,00,35,19.70
2015,08,12,00,36,19.70
2015,08,12,00,37,19.70
2015,08,12,00,38,19.70
2015,08,12,00,39,19.70
2015,08,12,00,40,19.70
2015,08,12,00,41,19.60
2015,08,12,00,42,19.60
2015,08,12,00,43,19.60
2015,08,12,00,44,19.60
2015,08,12,00,45,19.60
2015,08,12,00,46,19.60
2015,08,12,00,47,19.60
2015,08,12,00,48,19.50
2015,08,12,00,49,19.50
2015,08,12,00,50,19.50
2015,08,12,00,51,19.50
2015,08,12,00,52,19.50
2015,08,12,00,53,19.40
2015,08,12,00,54,19.40
2015,08,12,00,55,19.40
2015,08,12,00,56,19.40
2015,08,12,00,57,19.40
2015,08,12,00,58,19.40
2015,08,12,00,59,19.40
2015,08,12,01,00,19.40
2015,08,12,01,01,19.40
2015,08,12,01,02,19.30
2015,08,12,01,03,19.30
2015,08,12,01,04,19.30
2015,08,12,01,05,19.30
2015,08,12,01,06,19.30
2015,08,12,01,07,19.30
2015,08,12,01,08,19.30
2015,08,12,01,09,19.30
2015,08,12,01,10,19.30
2015,08,12,01,11,19.20
2015,08,12,01,12,19.20
2015,08,12,01,13,19.20
2015,08,12,01,14,19.20
2015,08,12,01,15,19.20
2015,08,12,01,16,19.20
2015,08,12,01,17,19.20
2015,08,12,01,18,19.20
2015,08,12,01,19,19.10
2015,08,12,01,20,19.10
2015,08,12,01,21,19.10
2015,08,12,01,22,19.10
2015,08,12,01,23,19.10
2015,08,12,01,24,19.10
2015,08,12,01,25,19.10
2015,08,12,01,26,19.10
2015,08,12,01,27,19.10
2015,08,12,01,28,19.10
2015,08,12,01,29,19.10
2015,08,12,01,30,19.00
2015,08,12,01,31,19.00
2015,08,12,01,32,19.00
2015,08,12,01,33,19.00
2015,08,12,01,34,19.00
2015,08,12,01,35,19.00
2015,08,12,01,36,18.90
2015,08,12,01,37,18.90
2015,08,12,01,38,18.90
2015,08,12,01,39,18.90
2015,08,12,01,40,18.90
2015,08,12,01,41,18.90
2015,08,12,01,42,18.90
2015,08,12,01,43,18.90
2015,08,12,01,44,18.90
2015,08,12,01,45,18.80
2015,08,12,01,46,18.80
2015,08,12,01,47,18.80
2015,08,12,01,48,18.80
2015,08,12,01,49,18.80
2015,08,12,01,50,18.80
2015,08,12,01,51,18.80
2015,08,12,01,52,18.80
2015,08,12,01,53,18.80
2015,08,12,01,54,18.80
2015,08,12,01,55,18.70
2015,08,12,01,56,18.70
2015,08,12,01,57,18.70
2015,08,12,01,58,18.70
2015,08,12,01,59,18.70
2015,08,12,02,00,18.70
2015,08,12,02,01,18.70
2015,08,12,02,02,18.60
2015,08,12,02,03,18.60
2015,08,12,02,04,18.60
2015,08,12,02,05,18.60
2015,08,12,02,06,18.60
2015,08,12,02,07,18.60
2015,08,12,02,08,18.60
2015,08,12,02,09,18.60
2015,08,12,02,10,18.60
2015,08,12,02,11,18.50
2015,08,12,02,12,18.50
2015,08,12,02,13,18.50
2015,08,12,02,14,18.50
2015,08,12,02,15,18.50
2015,08,12,02,16,18.50
2015,08,12,02,17,18.50
2015,08,12,02,18,18.60
2015,08,12,02,19,18.60
2015,08,12,02,20,18.60
2015,08,12,02,21,18.60
2015,08,12,02,22,18.60
2015,08,12,02,23,18.60
2015,08,12,02,24,18.60
2015,08,12,02,25,18.60
2015,08,12,02,26,18.70
2015,08,12,02,27,18.70
2015,08,12,02,28,18.70
2015,08,12,02,29,18.70
2015,08,12,02,30,18.70
2015,08,12,02,31,18.70
2015,08,12,02,32,18.70
2015,08,12,02,33,18.80
2015,08,12,02,34,18.80
2015,08,12,02,35,18.80
2015,08,12,02,36,18.80
2015,08,12,02,37,18.80
2015,08,12,02,38,18.80
2015,08,12,02,39,18.80
2015,08,12,02,40,18.80
2015,08,12,02,41,18.80
2015,08,12,02,42,18.90
2015,08,12,02,43,18.90
2015,08,12,02,44,18.90
2015,08,12,02,45,18.90
2015,08,12,02,46,18.90
2015,08,12,02,47,18.90
2015,08,12,02,48,18.90
2015,08,12,02,49,18.80
2015,08,12,02,50,18.80
2015,08,12,02,51,18.80
2015,08,12,02,52,18.80
2015,08,12,02,53,18.80
2015,08,12,02,54,18.80
2015,08,12,02,55,18.80
2015,08,12,02,56,18.80
2015,08,12,02,57,18.80
2015,08,12,02,58,18.80
2015,08,12,02,59,18.70
2015,08,12,03,00,18.70
2015,08,12,03,01,18.70
2015,08,12,03,02,18.70
2015,08,12,03,03,18.70
2015,08,12,03,04,18.70
2015,08,12,03,05,18.70
2015,08,12,03,06,18.70
2015,08,12,03,07,18.60
2015,08,12,03,08,18.60
2015,08,12,03,09,18.60
2015,08,12,03,10,18.60
2015,08,12,03,11,18.60
2015,08,12,03,12,18.50
2015,08,12,03,13,18.50
2015,08,12,03,14,18.50
2015,08,12,03,15,18.50
2015,08,12,03,16,18.40
2015,08,12,03,17,18.40
2015,08,12,03,18,18.40
2015,08,12,03,19,18.40
2015,08,12,03,20,18.40
2015,08,12,03,21,18.40
2015,08,12,03,22,18.30
2015,08,12,03,23,18.30
2015,08,12,03,24,18.30
2015,08,12,03,25,18.30
2015,08,12,03,26,18.30
2015,08,12,03,27,18.20
2015,08,12,03,28,18.20
2015,08,12,03,29,18.20
2015,08,12,03,30,18.20
2015,08,12,03,31,18.10
2015,08,12,03,32,18.10
2015,08,12,03,33,18.10
2015,08,12,03,34,18.10
2015,08,12,03,35,18.00
2015,08,12,03,36,18.00
2015,08,12,03,37,18.00
2015,08,12,03,38,17.90
2015,08,12,03,39,17.90
2015,08,12,03,40,17.90
2015,08,12,03,41,17.90
2015,08,12,03,42,17.80
2015,08,12,03,43,17.80
2015,08,12,03,44,17.80
2015,08,12,03,45,17.80
2015,08,12,03,46,17.70
2015,08,12,03,47,17.70
2015,08,12,03,48,17.70
2015,08,12,03,49,17.70
2015,08,12,03,50,17.70
2015,08,12,03,51,17.70
2015,08,12,03,52,17.60
2015,08,12,03,53,17.60
2015,08,12,03,54,17.60
2015,08,12,03,55,17.60
2015,08,12,03,56,17.60
2015,08,12,03,57,17.60
2015,08,12,03,58,17.60
2015,08,12,03,59,17.60
2015,08,12,04,00,17.60
2015,08,12,04,01,17.60
2015,08,12,04,02,17.50
2015,08,12,04,03,17.50
2015,08,12,04,04,17.50
2015,08,12,04,05,17.50
2015,08,12,04,06,17.50
2015,08,12,04,07,17.50
2015,08,12,04,08,17.50
2015,08,12,04,09,17.50
2015,08,12,04,10,17.50
2015,08,12,04,11,17.50
2015,08,12,04,12,17.50
2015,08,12,04,13,17.40
2015,08,12,04,14,17.40
2015,08,12,04,15,17.40
2015,08,12,04,16,17.40
2015,08,12,04,17,17.40
2015,08,12,04,18,17.40
2015,08,12,04,19,17.40
2015,08,12,04,20,17.40
2015,08,12,04,21,17.40
2015,08,12,04,22,17.40
2015,08,12,04,23,17.40
2015,08,12,04,24,17.40
2015,08,12,04,25,17.40
2015,08,12,04,26,17.40
2015,08,12,04,27,17.40
2015,08,12,04,28,17.40
2015,08,12,04,29,17.40
2015,08,12,04,30,17.40
2015,08,12,04,31,17.40
2015,08,12,04,32,17.40
2015,08,12,04,33,17.40
2015,08,12,04,34,17.40
2015,08,12,04,35,17.40
2015,08,12,04,36,17.40
2015,08,12,04,37,17.40
2015,08,12,04,38,17.40
2015,08,12,04,39,17.40
2015,08,12,04,40,17.40
2015,08,12,04,41,17.30
2015,08,12,04,42,17.30
2015,08,12,04,43,17.30
2015,08,12,04,44,17.30
2015,08,12,04,45,17.30
2015,08,12,04,46,17.30
2015,08,12,04,47,17.30
2015,08,12,04,48,17.30
2015,08,12,04,49,17.30
2015,08,12,04,50,17.30
2015,08,12,04,51,17.30
2015,08,12,04,52,17.30
2015,08,12,04,53,17.20
2015,08,12,04,54,17.20
2015,08,12,04,55,17.20
2015,08,12,04,56,17.20
2015,08,12,04,57,17.20
2015,08,12,04,58,17.20
2015,08,12,04,59,17.20
2015,08,12,05,00,17.20
2015,08,12,05,01,17.10
2015,08,12,05,02,17.10
2015,08,12,05,03,17.10
2015,08,12,05,04,17.10
2015,08,12,05,05,17.10
2015,08,12,05,06,17.00
2015,08,12,05,07,17.00
2015,08,12,05,08,17.00
2015,08,12,05,09,17.00
2015,08,12,05,10,16.90
2015,08,12,05,11,16.90
2015,08,12,05,12,16.90
2015,08,12,05,13,16.90
2015,08,12,05,14,16.90
2015,08,12,05,15,16.90
2015,08,12,05,16,16.90
2015,08,12,05,17,16.90
2015,08,12,05,18,16.90
2015,08,12,05,19,16.90
2015,08,12,05,20,16.90
2015,08,12,05,21,16.90
2015,08,12,05,22,16.90
2015,08,12,05,23,16.90
2015,08,12,05,24,16.90
2015,08,12,05,25,16.90
2015,08,12,05,26,16.90
2015,08,12,05,27,16.90
2015,08,12,05,28,16.90
2015,08,12,05,29,16.90
2015,08,12,05,30,16.90
2015,08,12,05,31,16.90
2015,08,12,05,32,16.90
2015,08,12,05,33,16.80
2015,08,12,05,34,16.80
2015,08,12,05,35,16.80
2015,08,12,05,36,16.80
2015,08,12,05,37,16.80
2015,08,12,05,38,16.80
2015,08,12,05,39,16.80
2015,08,12,05,40,16.80
2015,08,12,05,41,16.80
2015,08,12,05,42,16.80
2015,08,12,05,43,16.80
2015,08,12,05,44,16.80
2015,08,12,05,45,16.80
2015,08,12,05,46,16.80
2015,08,12,05,47,16.80
2015,08,12,05,48,16.80
2015,08,12,05,49,16.80
2015,08,12,05,50,16.80
2015,08,12,05,51,16.80
2015,08,12,05,52,16.80
2015,08,12,05,53,16.80
2015,08,12,05,54,16.80
2015,08,12,05,55,16.80
2015,08,12,05,56,16.80
2015,08,12,05,57,16.80
2015,08,12,05,58,16.80
2015,08,12,05,59,16.80
2015,08,12,06,00,16.80
2015,08,12,06,01,16.80
2015,08,12,06,02,16.80
2015,08,12,06,03,16.80
2015,08,12,06,04,16.80
2015,08,12,06,05,16.70
2015,08,12,06,06,16.70
2015,08,12,06,07,16.70
2015,08,12,06,08,16.70
2015,08,12,06,09,16.70
2015,08,12,06,10,16.70
2015,08,12,06,11,16.70
2015,08,12,06,12,16.70
2015,08,12,06,13,16.70
2015,08,12,06,14,16.70
2015,08,12,06,15,16.70
2015,08,12,06,16,16.60
2015,08,12,06,17,16.60
2015,08,12,06,18,16.60
2015,08,12,06,19,16.60
2015,08,12,06,20,16.60
2015,08,12,06,21,16.60
2015,08,12,06,22,16.60
2015,08,12,06,23,16.60
2015,08,12,06,24,16.60
2015,08,12,06,25,16.60
2015,08,12,06,26,16.50
2015,08,12,06,27,16.50
2015,08,12,06,28,16.50
2015,08,12,06,29,16.50
2015,08,12,06,30,16.50
2015,08,12,06,31,16.50
2015,08,12,06,32,16.40
2015,08,12,06,33,16.40
2015,08,12,06,34,16.40
2015,08,12,06,35,16.40
2015,08,12,06,36,16.40
2015,08,12,06,37,16.40
2015,08,12,06,38,16.30
2015,08,12,06,39,16.30
2015,08,12,06,40,16.30
2015,08,12,06,41,16.30
2015,08,12,06,42,16.30
2015,08,12,06,43,16.30
2015,08,12,06,44,16.30
2015,08,12,06,45,16.30
2015,08,12,06,46,16.30
2015,08,12,06,47,16.30
2015,08,12,06,48,16.30
2015,08,12,06,49,16.30
2015,08,12,06,50,16.30
2015,08,12,06,51,16.30
2015,08,12,06,52,16.30
2015,08,12,06,53,16.30
2015,08,12,06,54,16.30
2015,08,12,06,55,16.30
2015,08,12,06,56,16.40
2015,08,12,06,57,16.40
2015,08,12,06,58,16.40
2015,08,12,06,59,16.40
2015,08,12,07,00,16.40
2015,08,12,07,01,16.40
2015,08,12,07,02,16.50
2015,08,12,07,03,16.50
2015,08,12,07,04,16.50
2015,08,12,07,05,16.60
2015,08,12,07,06,16.60
2015,08,12,07,07,16.60
2015,08,12,07,08,16.60
2015,08,12,07,09,16.70
2015,08,12,07,10,16.70
2015,08,12,07,11,16.70
2015,08,12,07,12,16.70
2015,08,12,07,13,16.80
2015,08,12,07,14,16.80
2015,08,12,07,15,16.80
2015,08,12,07,16,16.90
2015,08,12,07,17,16.90
2015,08,12,07,18,16.90
2015,08,12,07,19,17.00
2015,08,12,07,20,17.10
2015,08,12,07,21,17.10
2015,08,12,07,22,17.10
2015,08,12,07,23,17.20
2015,08,12,07,24,17.20
2015,08,12,07,25,17.30
2015,08,12,07,26,17.40
2015,08,12,07,27,17.40
2015,08,12,07,28,17.50
2015,08,12,07,29,17.50
2015,08,12,07,30,17.60
2015,08,12,07,31,17.60
2015,08,12,07,32,17.60
2015,08,12,07,33,17.70
2015,08,12,07,34,17.70
2015,08,12,07,35,17.80
2015,08,12,07,36,17.80
2015,08,12,07,37,17.90
2015,08,12,07,38,18.00
2015,08,12,07,39,18.00
2015,08,12,07,40,18.10
2015,08,12,07,41,18.20
2015,08,12,07,42,18.30
2015,08,12,07,43,18.30
2015,08,12,07,44,18.40
2015,08,12,07,45,18.50
2015,08,12,07,46,18.50
2015,08,12,07,47,18.60
2015,08,12,07,48,18.60
2015,08,12,07,49,18.70
2015,08,12,07,50,18.80
2015,08,12,07,51,18.90
2015,08,12,07,52,18.90
2015,08,12,07,53,19.00
2015,08,12,07,54,19.10
2015,08,12,07,55,19.10
2015,08,12,07,56,19.20
2015,08,12,07,57,19.20
2015,08,12,07,58,19.30
2015,08,12,07,59,19.40
2015,08,12,08,00,19.50
2015,08,12,08,01,19.60
2015,08,12,08,02,19.70
2015,08,12,08,03,19.70
2015,08,12,08,04,19.80
2015,08,12,08,05,19.80
2015,08,12,08,06,19.90
2015,08,12,08,07,20.00
2015,08,12,08,08,20.00
2015,08,12,08,09,20.10
2015,08,12,08,10,20.10
2015,08,12,08,11,20.20
2015,08,12,08,12,20.20
2015,08,12,08,13,20.30
2015,08,12,08,14,20.30
2015,08,12,08,15,20.40
2015,08,12,08,16,20.40
2015,08,12,08,17,20.50
2015,08,12,08,18,20.60
2015,08,12,08,19,20.70
2015,08,12,08,20,20.70
2015,08,12,08,21,20.80
2015,08,12,08,22,20.80
2015,08,12,08,23,20.90
2015,08,12,08,24,21.00
2015,08,12,08,25,21.10
2015,08,12,08,26,21.10
2015,08,12,08,27,21.20
2015,08,12,08,28,21.30
2015,08,12,08,29,21.30
2015,08,12,08,30,21.40
2015,08,12,08,31,21.50
2015,08,12,08,32,21.60
2015,08,12,08,33,21.60
2015,08,12,08,34,21.60
2015,08,12,08,35,21.70
2015,08,12,08,36,21.70
2015,08,12,08,37,21.70
2015,08,12,08,38,21.70
2015,08,12,08,39,21.80
2015,08,12,08,40,21.80
2015,08,12,08,41,21.90
2015,08,12,08,42,21.90
2015,08,12,08,43,22.00
2015,08,12,08,44,22.00
2015,08,12,08,45,22.00
2015,08,12,08,46,22.10
2015,08,12,08,47,22.10
2015,08,12,08,48,22.20
2015,08,12,08,49,22.20
2015,08,12,08,50,22.30
2015,08,12,08,51,22.30
2015,08,12,08,52,22.30
2015,08,12,08,53,22.40
2015,08,12,08,54,22.40
2015,08,12,08,55,22.50
2015,08,12,08,56,22.50
2015,08,12,08,57,22.60
2015,08,12,08,58,22.60
2015,08,12,08,59,22.70
2015,08,12,09,00,22.70
2015,08,12,09,01,22.80
2015,08,12,09,02,22.80
2015,08,12,09,03,22.80
2015,08,12,09,04,22.80
2015,08,12,09,05,22.90
2015,08,12,09,06,22.90
2015,08,12,09,07,22.90
2015,08,12,09,08,23.00
2015,08,12,09,09,23.00
2015,08,12,09,10,23.10
2015,08,12,09,11,23.20
2015,08,12,09,12,23.20
2015,08,12,09,13,23.30
2015,08,12,09,14,23.30
2015,08,12,09,15,23.40
2015,08,12,09,16,23.40
2015,08,12,09,17,23.50
2015,08,12,09,18,23.50
2015,08,12,09,19,23.60
2015,08,12,09,20,23.60
2015,08,12,09,21,23.70
2015,08,12,09,22,23.70
2015,08,12,09,23,23.70
2015,08,12,09,24,23.70
2015,08,12,09,25,23.80
2015,08,12,09,26,23.80
2015,08,12,09,27,23.80
2015,08,12,09,28,23.80
2015,08,12,09,29,23.80
2015,08,12,09,30,23.80
2015,08,12,09,31,23.80
2015,08,12,09,32,23.80
2015,08,12,09,33,23.90
2015,08,12,09,34,23.90
2015,08,12,09,35,24.00
2015,08,12,09,36,24.00
2015,08,12,09,37,24.10
2015,08,12,09,38,24.10
2015,08,12,09,39,24.20
2015,08,12,09,40,24.30
2015,08,12,09,41,24.30
2015,08,12,09,42,24.40
2015,08,12,09,43,24.40
2015,08,12,09,44,24.40
2015,08,12,09,45,24.40
2015,08,12,09,46,24.50
2015,08,12,09,47,24.50
2015,08,12,09,48,24.60
2015,08,12,09,49,24.60
2015,08,12,09,50,24.70
2015,08,12,09,51,24.80
2015,08,12,09,52,24.80
2015,08,12,09,53,24.80
2015,08,12,09,54,24.80
2015,08,12,09,55,24.80
2015,08,12,09,56,24.80
2015,08,12,09,57,24.80
2015,08,12,09,58,24.80
2015,08,12,09,59,24.80
2015,08,12,10,00,24.70
2015,08,12,10,01,24.70
2015,08,12,10,02,24.70
2015,08,12,10,03,24.70
2015,08,12,10,04,24.70
2015,08,12,10,05,24.70
2015,08,12,10,06,24.70
2015,08,12,10,07,24.80
2015,08,12,10,08,24.80
2015,08,12,10,09,24.90
2015,08,12,10,10,24.90
2015,08,12,10,11,25.00
2015,08,12,10,12,25.10
2015,08,12,10,13,25.10
2015,08,12,10,14,25.10
2015,08,12,10,15,25.20
2015,08,12,10,16,25.20
2015,08,12,10,17,25.30
2015,08,12,10,18,25.30
2015,08,12,10,19,25.30
2015,08,12,10,20,25.30
2015,08,12,10,21,25.40
2015,08,12,10,22,25.40
2015,08,12,10,23,25.40
2015,08,12,10,24,25.50
2015,08,12,10,25,25.60
2015,08,12,10,26,25.60
2015,08,12,10,27,25.70
2015,08,12,10,28,25.80
2015,08,12,10,29,25.80
2015,08,12,10,30,25.80
2015,08,12,10,31,25.80
2015,08,12,10,32,25.80
2015,08,12,10,33,25.80
2015,08,12,10,34,25.90
2015,08,12,10,35,26.00
2015,08,12,10,36,26.00
2015,08,12,10,37,26.10
2015,08,12,10,38,26.20
2015,08,12,10,39,26.30
2015,08,12,10,40,26.30
2015,08,12,10,41,26.30
2015,08,12,10,42,26.30
2015,08,12,10,43,26.30
2015,08,12,10,44,26.30
2015,08,12,10,45,26.30
2015,08,12,10,46,26.40
2015,08,12,10,47,26.40
2015,08,12,10,48,26.50
2015,08,12,10,49,26.60
2015,08,12,10,50,26.60
2015,08,12,10,51,26.80
2015,08,12,10,52,26.80
2015,08,12,10,53,26.90
2015,08,12,10,54,27.10
2015,08,12,10,55,27.10
2015,08,12,10,56,27.20
2015,08,12,10,57,27.20
2015,08,12,10,58,27.20
2015,08,12,10,59,27.20
2015,08,12,11,00,27.20
2015,08,12,11,01,27.30
2015,08,12,11,02,27.30
2015,08,12,11,03,27.30
2015,08,12,11,04,27.30
2015,08,12,11,05,27.30
2015,08,12,11,06,27.40
2015,08,12,11,07,27.50
2015,08,12,11,08,27.60
2015,08,12,11,09,27.60
2015,08,12,11,10,27.70
2015,08,12,11,11,27.80
2015,08,12,11,12,27.80
2015,08,12,11,13,27.80
2015,08,12,11,14,27.80
2015,08,12,11,15,27.80
2015,08,12,11,16,27.90
2015,08,12,11,17,27.90
2015,08,12,11,18,28.00
2015,08,12,11,19,28.10
2015,08,12,11,20,28.10
2015,08,12,11,21,28.20
2015,08,12,11,22,28.20
2015,08,12,11,23,28.20
2015,08,12,11,24,28.20
2015,08,12,11,25,28.30
2015,08,12,11,26,28.30
2015,08,12,11,27,28.30
2015,08,12,11,28,28.30
2015,08,12,11,29,28.30
2015,08,12,11,30,28.40
2015,08,12,11,31,28.40
2015,08,12,11,32,28.40
2015,08,12,11,33,28.40
2015,08,12,11,34,28.50
2015,08,12,11,35,28.60
2015,08,12,11,36,28.60
2015,08,12,11,37,28.70
2015,08,12,11,38,28.80
2015,08,12,11,39,28.90
2015,08,12,11,40,29.10
2015,08,12,11,41,29.10
2015,08,12,11,42,29.10
2015,08,12,11,43,29.00
2015,08,12,11,44,29.00
2015,08,12,11,45,29.00
2015,08,12,11,46,29.00
2015,08,12,11,47,29.10
2015,08,12,11,48,29.10
2015,08,12,11,49,29.10
2015,08,12,11,50,29.20
2015,08,12,11,51,29.30
2015,08,12,11,52,29.30
2015,08,12,11,53,29.30
2015,08,12,11,54,29.40
2015,08,12,11,55,29.50
2015,08,12,11,56,29.60
2015,08,12,11,57,29.60
2015,08,12,11,58,29.60
2015,08,12,11,59,29.50
2015,08,12,12,00,29.40
2015,08,12,12,01,29.50
2015,08,12,12,02,29.50
2015,08,12,12,03,29.60
2015,08,12,12,04,29.60
2015,08,12,12,05,29.60
2015,08,12,12,06,29.60
2015,08,12,12,07,29.70
2015,08,12,12,08,29.70
2015,08,12,12,09,29.70
2015,08,12,12,10,29.70
2015,08,12,12,11,29.70
2015,08,12,12,12,29.70
2015,08,12,12,13,29.70
2015,08,12,12,14,29.70
2015,08,12,12,15,29.80
2015,08,12,12,16,29.90
2015,08,12,12,17,29.90
2015,08,12,12,18,29.80
2015,08,12,12,19,29.70
2015,08,12,12,20,29.60
2015,08,12,12,21,29.50
2015,08,12,12,22,29.30
2015,08,12,12,23,29.20
2015,08,12,12,24,29.10
2015,08,12,12,25,29.10
2015,08,12,12,26,29.00
2015,08,12,12,27,29.00
2015,08,12,12,28,28.90
2015,08,12,12,29,28.90
2015,08,12,12,30,28.90
2015,08,12,12,31,28.90
2015,08,12,12,32,28.90
2015,08,12,12,33,28.90
2015,08,12,12,34,28.90
2015,08,12,12,35,29.00
2015,08,12,12,36,28.90
2015,08,12,12,37,28.90
2015,08,12,12,38,28.90
2015,08,12,12,39,28.90
2015,08,12,12,40,28.90
2015,08,12,12,41,28.90
2015,08,12,12,42,28.90
2015,08,12,12,43,28.90
2015,08,12,12,44,28.90
2015,08,12,12,45,29.00
2015,08,12,12,46,29.10
2015,08,12,12,47,29.10
2015,08,12,12,48,29.20
2015,08,12,12,49,29.30
2015,08,12,12,50,29.30
2015,08,12,12,51,29.20
2015,08,12,12,52,29.20
2015,08,12,12,53,29.10
2015,08,12,12,54,29.10
2015,08,12,12,55,29.10
2015,08,12,12,56,29.00
2015,08,12,12,57,29.00
2015,08,12,12,58,29.00
2015,08,12,12,59,28.90
2015,08,12,13,00,28.90
2015,08,12,13,01,28.90
2015,08,12,13,02,28.90
2015,08,12,13,03,28.80
2015,08,12,13,04,28.80
2015,08,12,13,05,28.80
2015,08,12,13,06,28.80
2015,08,12,13,07,28.70
2015,08,12,13,08,28.60
2015,08,12,13,09,28.50
2015,08,12,13,10,28.50
2015,08,12,13,11,28.40
2015,08,12,13,12,28.40
2015,08,12,13,13,28.40
2015,08,12,13,14,28.50
2015,08,12,13,15,28.60
2015,08,12,13,16,28.60
2015,08,12,13,17,28.60
2015,08,12,13,18,28.60
2015,08,12,13,19,28.60
2015,08,12,13,20,28.60
2015,08,12,13,21,28.60
2015,08,12,13,22,28.60
2015,08,12,13,23,28.60
2015,08,12,13,24,28.60
2015,08,12,13,25,28.60
2015,08,12,13,26,28.60
2015,08,12,13,27,28.50
2015,08,12,13,28,28.40
2015,08,12,13,29,28.40
2015,08,12,13,30,28.40
2015,08,12,13,31,28.40
2015,08,12,13,32,28.30
2015,08,12,13,33,28.30
2015,08,12,13,34,28.30
2015,08,12,13,35,28.30
2015,08,12,13,36,28.30
2015,08,12,13,37,28.30
2015,08,12,13,38,28.30
2015,08,12,13,39,28.30
2015,08,12,13,40,28.20
2015,08,12,13,41,28.20
2015,08,12,13,42,28.10
2015,08,12,13,43,28.10
2015,08,12,13,44,28.10
2015,08,12,13,45,28.00
2015,08,12,13,46,28.00
2015,08,12,13,47,28.00
2015,08,12,13,48,28.00
2015,08,12,13,49,28.00
2015,08,12,13,50,27.90
2015,08,12,13,51,27.90
2015,08,12,13,52,27.90
2015,08,12,13,53,27.80
2015,08,12,13,54,27.80
2015,08,12,13,55,27.80
2015,08,12,13,56,27.80
2015,08,12,13,57,27.80
2015,08,12,13,58,27.70
2015,08,12,13,59,27.70
2015,08,12,14,00,27.60
2015,08,12,14,01,27.60
2015,08,12,14,02,27.60
2015,08,12,14,03,27.60
2015,08,12,14,04,27.60
2015,08,12,14,05,27.60
2015,08,12,14,06,27.60
2015,08,12,14,07,27.60
2015,08,12,14,08,27.60
2015,08,12,14,09,27.60
2015,08,12,14,10,27.70
2015,08,12,14,11,27.70
2015,08,12,14,12,27.70
2015,08,12,14,13,27.80
2015,08,12,14,14,27.80
2015,08,12,14,15,27.80
2015,08,12,14,16,27.80
2015,08,12,14,17,27.80
2015,08,12,14,18,27.80
2015,08,12,14,19,27.80
2015,08,12,14,20,27.80
2015,08,12,14,21,27.80
2015,08,12,14,22,27.80
2015,08,12,14,23,27.80
2015,08,12,14,24,27.70
2015,08,12,14,25,27.80
2015,08,12,14,26,27.70
2015,08,12,14,27,27.70
2015,08,12,14,28,27.70
2015,08,12,14,29,27.70
2015,08,12,14,30,27.70
2015,08,12,14,31,27.70
2015,08,12,14,32,27.70
2015,08,12,14,33,27.70
2015,08,12,14,34,27.70
2015,08,12,14,35,27.80
2015,08,12,14,36,27.80
2015,08,12,14,37,27.80
2015,08,12,14,38,27.80
2015,08,12,14,39,27.80
2015,08,12,14,40,27.90
2015,08,12,14,41,27.90
2015,08,12,14,42,27.90
2015,08,12,14,43,27.90
2015,08,12,14,44,27.90
2015,08,12,14,45,27.90
2015,08,12,14,46,27.90
2015,08,12,14,47,27.90
2015,08,12,14,48,27.90
2015,08,12,14,49,27.90
2015,08,12,14,50,27.80
2015,08,12,14,51,27.80
2015,08,12,14,52,27.80
2015,08,12,14,53,27.80
2015,08,12,14,54,27.80
2015,08,12,14,55,27.90
2015,08,12,14,56,27.90
2015,08,12,14,57,28.00
2015,08,12,14,58,28.10
2015,08,12,14,59,28.10
2015,08,12,15,00,28.10
2015,08,12,15,01,28.10
2015,08,12,15,02,28.20
2015,08,12,15,03,28.20
2015,08,12,15,04,28.30
2015,08,12,15,05,28.40
2015,08,12,15,06,28.40
2015,08,12,15,07,28.50
2015,08,12,15,08,28.60
2015,08,12,15,09,28.80
2015,08,12,15,10,28.90
2015,08,12,15,11,29.00
2015,08,12,15,12,29.10
2015,08,12,15,13,29.20
2015,08,12,15,14,29.30
2015,08,12,15,15,29.40
2015,08,12,15,16,29.50
2015,08,12,15,17,29.50
2015,08,12,15,18,29.60
2015,08,12,15,19,29.60
2015,08,12,15,20,29.70
2015,08,12,15,21,29.70
2015,08,12,15,22,29.70
2015,08,12,15,23,29.70
2015,08,12,15,24,29.70
2015,08,12,15,25,29.80
2015,08,12,15,26,29.80
2015,08,12,15,27,29.80
2015,08,12,15,28,29.80
2015,08,12,15,29,29.80
2015,08,12,15,30,29.90
2015,08,12,15,31,29.90
2015,08,12,15,32,29.90
2015,08,12,15,33,30.00
2015,08,12,15,34,30.10
2015,08,12,15,35,30.20
2015,08,12,15,36,30.30
2015,08,12,15,37,30.30
2015,08,12,15,38,30.30
2015,08,12,15,39,30.40
2015,08,12,15,40,30.40
2015,08,12,15,41,30.50
2015,08,12,15,42,30.60
2015,08,12,15,43,30.60
2015,08,12,15,44,30.70
2015,08,12,15,45,30.80
2015,08,12,15,46,30.90
2015,08,12,15,47,31.00
2015,08,12,15,48,31.00
2015,08,12,15,49,31.10
2015,08,12,15,50,31.10
2015,08,12,15,51,31.10
2015,08,12,15,52,31.20
2015,08,12,15,53,31.20
2015,08,12,15,54,31.30
2015,08,12,15,55,31.40
2015,08,12,15,56,31.50
2015,08,12,15,57,31.60
2015,08,12,15,58,31.80
2015,08,12,15,59,31.90
2015,08,12,16,00,32.10
2015,08,12,16,01,32.20
2015,08,12,16,02,32.20
2015,08,12,16,03,32.20
2015,08,12,16,04,32.20
2015,08,12,16,05,32.10
2015,08,12,16,06,32.10
2015,08,12,16,07,32.20
2015,08,12,16,08,32.20
2015,08,12,16,09,32.20
2015,08,12,16,10,32.30
2015,08,12,16,11,32.20
2015,08,12,16,12,32.20
2015,08,12,16,13,32.20
2015,08,12,16,14,32.20
2015,08,12,16,15,32.20
2015,08,12,16,16,32.30
2015,08,12,16,17,32.30
2015,08,12,16,18,32.30
2015,08,12,16,19,32.30
2015,08,12,16,20,32.20
2015,08,12,16,21,32.20
2015,08,12,16,22,32.00
2015,08,12,16,23,31.90
2015,08,12,16,24,31.80
2015,08,12,16,25,31.80
2015,08,12,16,26,31.70
2015,08,12,16,27,31.60
2015,08,12,16,28,31.60
2015,08,12,16,29,31.60
2015,08,12,16,30,31.60
2015,08,12,16,31,31.60
2015,08,12,16,32,31.70
2015,08,12,16,33,31.70
2015,08,12,16,34,31.70
2015,08,12,16,35,31.70
2015,08,12,16,36,31.70
2015,08,12,16,37,31.70
2015,08,12,16,38,31.60
2015,08,12,16,39,31.60
2015,08,12,16,40,31.50
2015,08,12,16,41,31.40
2015,08,12,16,42,31.30
2015,08,12,16,43,31.30
2015,08,12,16,44,31.20
2015,08,12,16,45,31.20
2015,08,12,16,46,31.20
2015,08,12,16,47,31.10
2015,08,12,16,48,31.10
2015,08,12,16,49,31.00
2015,08,12,16,50,31.00
2015,08,12,16,51,31.00
2015,08,12,16,52,30.90
2015,08,12,16,53,30.90
2015,08,12,16,54,30.80
2015,08,12,16,55,30.80
2015,08,12,16,56,30.80
2015,08,12,16,57,30.70
2015,08,12,16,58,30.70
2015,08,12,16,59,30.70
2015,08,12,17,00,30.70
2015,08,12,17,01,30.70
2015,08,12,17,02,30.70
2015,08,12,17,03,30.70
2015,08,12,17,04,30.60
2015,08,12,17,05,30.60
2015,08,12,17,06,30.60
2015,08,12,17,07,30.60
2015,08,12,17,08,30.60
2015,08,12,17,09,30.60
2015,08,12,17,10,30.60
2015,08,12,17,11,30.60
2015,08,12,17,12,30.60
2015,08,12,17,13,30.60
2015,08,12,17,14,30.70
2015,08,12,17,15,30.70
2015,08,12,17,16,30.70
2015,08,12,17,17,30.70
2015,08,12,17,18,30.70
2015,08,12,17,19,30.70